Simultaneous Nadir Overpasses (SNOs) Predictions

Prediction of SNOs between GOES-16 and NPP Satellite Orbit:

Table of predicted SNOs for the next 14.0 days since TLE Epoch: 2/28/2020
Index Date Time (GOES-16) GOES-16 Lat,Lon NPP Lat,Lon Distance(km) Time Diff (sec)
1 02/29/2020 18:32:28 -0.05, -75.17 -0.53, -77.20 232.01 80
2 03/01/2020 18:16:24 -0.05, -75.17 0.54, -72.68 284.92 80
3 03/03/2020 06:38:11 0.05, -75.18 0.69, -77.94 315.32 80
4 03/04/2020 06:16:47 0.06, -75.18 -0.31, -73.41 201.63 80
5 03/05/2020 18:38:44 -0.06, -75.20 -0.84, -78.72 401.48 80
6 03/06/2020 18:22:40 -0.06, -75.20 0.17, -74.19 115.72 80
7 03/08/2020 06:44:28 0.07, -75.22 1.00, -79.46 483.74 80
8 03/09/2020 06:23:04 0.07, -75.23 -0.01, -74.93 33.70 80
9 03/11/2020 18:26:15 -0.07, -75.26 -0.19, -75.70 50.72 80
10 03/12/2020 18:10:12 -0.07, -75.28 0.88, -71.19 467.43 80




NCC Satellite Simultaneous Nadir Overpasses (SNOs) Prediction Service
